Time,TemperatureF,DewpointF,PressureIn,WindDirection,WindDirectionDegrees,WindSpeedMPH,WindSpeedGustMPH,Humidity,HourlyPrecipIn,Conditions,Clouds,dailyrainin,SoftwareType,DateUTC
2013-04-16 00:03:00,61.0,53.0,29.99,SSE,164,0.0,-999.0,75,-99.99,,,-99.99,,2013-04-16 04:03:00,
2013-04-16 00:12:00,61.0,53.0,29.99,SSE,164,0.0,-999.0,75,-99.99,,,-99.99,,2013-04-16 04:12:00,
2013-04-16 00:23:00,61.0,53.0,29.99,South,191,0.0,-999.0,75,-99.99,,,-99.99,,2013-04-16 04:23:00,
2013-04-16 00:33:00,61.0,53.0,29.99,South,176,0.0,-999.0,74,-99.99,,,-99.99,,2013-04-16 04:33:00,
2013-04-16 00:42:00,61.0,53.0,29.99,South,176,0.0,-999.0,74,-99.99,,,-99.99,,2013-04-16 04:42:00,
2013-04-16 00:53:00,61.0,53.0,29.99,South,173,0.0,-999.0,74,-99.99,,,-99.99,,2013-04-16 04:53:00,
2013-04-16 01:02:00,61.0,53.0,29.99,South,173,0.0,-999.0,74,-99.99,,,-99.99,,2013-04-16 05:02:00,
2013-04-16 01:12:00,61.0,53.0,29.99,South,173,0.0,-999.0,74,-99.99,,,-99.99,,2013-04-16 05:12:00,
2013-04-16 01:22:00,60.0,52.0,29.98,SSE,162,0.0,-999.0,75,-99.99,,,-99.99,,2013-04-16 05:22:00,
2013-04-16 01:32:00,60.0,52.0,29.98,SSE,161,0.0,-999.0,75,-99.99,,,-99.99,,2013-04-16 05:32:00,
2013-04-16 01:42:00,60.0,52.0,29.98,SSE,161,0.0,-999.0,75,-99.99,,,-99.99,,2013-04-16 05:42:00,
2013-04-16 01:52:00,60.0,52.0,29.97,SE,132,0.0,-999.0,76,-99.99,,,-99.99,,2013-04-16 05:52:00,
2013-04-16 02:02:00,60.0,52.0,29.98,SSE,156,0.0,-999.0,76,-99.99,,,-99.99,,2013-04-16 06:02:00,
2013-04-16 02:12:00,60.0,52.0,29.98,SSE,156,0.0,-999.0,76,-99.99,,,-99.99,,2013-04-16 06:12:00,
2013-04-16 02:22:00,60.0,52.0,29.97,SSE,163,0.0,-999.0,75,-99.99,,,-99.99,,2013-04-16 06:22:00,
2013-04-16 02:32:00,60.0,52.0,29.96,SSE,161,0.0,-999.0,76,-99.99,,,-99.99,,2013-04-16 06:32:00,
2013-04-16 02:42:00,60.0,52.0,29.96,SSE,161,0.0,-999.0,76,-99.99,,,-99.99,,2013-04-16 06:42:00,
2013-04-16 02:52:00,60.0,52.0,29.95,SE,146,1.0,-999.0,76,-99.99,,,-99.99,,2013-04-16 06:52:00,
2013-04-16 03:02:00,59.0,51.0,29.95,SSE,149,1.0,-999.0,76,-99.99,,,-99.99,,2013-04-16 07:02:00,
2013-04-16 03:12:00,59.0,51.0,29.95,SSE,149,1.0,-999.0,76,-99.99,,,-99.99,,2013-04-16 07:12:00,
2013-04-16 03:22:00,59.0,51.0,29.93,South,175,1.0,-999.0,76,-99.99,,,-99.99,,2013-04-16 07:22:00,
2013-04-16 03:32:00,59.0,51.0,29.92,SSE,163,2.0,-999.0,76,-99.99,,,-99.99,,2013-04-16 07:32:00,
2013-04-16 03:42:00,59.0,51.0,29.92,SSE,163,2.0,-999.0,76,-99.99,,,-99.99,,2013-04-16 07:42:00,
2013-04-16 03:53:00,59.0,51.0,29.93,South,171,2.0,-999.0,76,-99.99,,,-99.99,,2013-04-16 07:53:00,
2013-04-16 04:02:00,60.0,52.0,29.93,SSE,150,2.0,-999.0,76,-99.99,,,-99.99,,2013-04-16 08:02:00,
2013-04-16 04:12:00,60.0,52.0,29.93,SSE,150,2.0,-999.0,76,-99.99,,,-99.99,,2013-04-16 08:12:00,
2013-04-16 04:22:00,59.0,52.0,29.94,South,178,2.0,-999.0,77,-99.99,,,-99.99,,2013-04-16 08:22:00,
2013-04-16 04:32:00,59.0,52.0,29.94,South,174,2.0,-999.0,77,-99.99,,,-99.99,,2013-04-16 08:32:00,
2013-04-16 04:42:00,59.0,52.0,29.94,South,174,2.0,-999.0,77,-99.99,,,-99.99,,2013-04-16 08:42:00,
2013-04-16 04:52:00,59.0,52.0,29.95,SSW,207,1.0,-999.0,78,-99.99,,,-99.99,,2013-04-16 08:52:00,
2013-04-16 05:02:00,59.0,52.0,29.95,SSE,153,1.0,-999.0,79,-99.99,,,-99.99,,2013-04-16 09:02:00,
2013-04-16 05:12:00,59.0,52.0,29.95,SSE,153,1.0,-999.0,79,-99.99,,,-99.99,,2013-04-16 09:12:00,
2013-04-16 05:22:00,59.0,52.0,29.96,SSE,162,1.0,-999.0,79,-99.99,,,-99.99,,2013-04-16 09:22:00,
2013-04-16 05:33:00,59.0,53.0,29.96,SSE,148,1.0,-999.0,80,-99.99,,,-99.99,,2013-04-16 09:33:00,
2013-04-16 05:43:00,59.0,53.0,29.96,SSE,148,1.0,-999.0,80,-99.99,,,-99.99,,2013-04-16 09:43:00,
2013-04-16 05:53:00,59.0,53.0,29.96,SSE,160,2.0,-999.0,80,-99.99,,,-99.99,,2013-04-16 09:53:00,
2013-04-16 06:03:00,59.0,53.0,29.96,SE,141,1.0,-999.0,80,-99.99,,,-99.99,,2013-04-16 10:03:00,
2013-04-16 06:13:00,59.0,53.0,29.96,SE,141,1.0,-999.0,80,-99.99,,,-99.99,,2013-04-16 10:13:00,
2013-04-16 06:23:00,59.0,53.0,29.96,SSE,153,2.0,-999.0,80,-99.99,,,-99.99,,2013-04-16 10:23:00,
2013-04-16 06:33:00,59.0,53.0,29.96,SE,127,1.0,-999.0,80,-99.99,,,-99.99,,2013-04-16 10:33:00,
2013-04-16 06:42:00,59.0,53.0,29.96,SE,127,1.0,-999.0,80,-99.99,,,-99.99,,2013-04-16 10:42:00,
2013-04-16 06:53:00,59.0,53.0,29.96,SSE,167,1.0,-999.0,80,-99.99,,,-99.99,,2013-04-16 10:53:00,
2013-04-16 07:02:00,59.0,53.0,29.96,SSE,160,1.0,-999.0,81,-99.99,,,-99.99,,2013-04-16 11:02:00,
2013-04-16 07:12:00,59.0,53.0,29.96,SSE,160,1.0,-999.0,81,-99.99,,,-99.99,,2013-04-16 11:12:00,
2013-04-16 07:22:00,59.0,53.0,29.97,SSW,203,1.0,-999.0,81,-99.99,,,-99.99,,2013-04-16 11:22:00,
2013-04-16 07:32:00,60.0,54.0,29.97,SSW,194,1.0,-999.0,80,-99.99,,,-99.99,,2013-04-16 11:32:00,
2013-04-16 07:42:00,60.0,54.0,29.97,SSW,194,1.0,-999.0,80,-99.99,,,-99.99,,2013-04-16 11:42:00,
2013-04-16 07:53:00,60.0,55.0,29.97,SE,132,1.0,-999.0,83,-99.99,,,-99.99,,2013-04-16 11:53:00,
2013-04-16 08:02:00,60.0,54.0,29.97,ESE,113,1.0,-999.0,81,-99.99,,,-99.99,,2013-04-16 12:02:00,
2013-04-16 08:12:00,60.0,54.0,29.97,ESE,113,1.0,-999.0,81,-99.99,,,-99.99,,2013-04-16 12:12:00,
2013-04-16 08:22:00,61.0,55.0,29.98,SSW,194,1.0,-999.0,81,-99.99,,,-99.99,,2013-04-16 12:22:00,
2013-04-16 08:32:00,62.0,56.0,30.00,SSW,209,2.0,-999.0,80,-99.99,,,-99.99,,2013-04-16 12:32:00,
2013-04-16 08:42:00,62.0,56.0,30.00,SSW,209,2.0,-999.0,80,-99.99,,,-99.99,,2013-04-16 12:42:00,
2013-04-16 08:52:00,63.0,56.0,30.02,West,268,2.0,-999.0,78,-99.99,,,-99.99,,2013-04-16 12:52:00,
2013-04-16 09:02:00,63.0,56.0,30.04,WNW,292,2.0,-999.0,78,-99.99,,,-99.99,,2013-04-16 13:02:00,
2013-04-16 09:12:00,63.0,56.0,30.04,WNW,292,2.0,-999.0,78,-99.99,,,-99.99,,2013-04-16 13:12:00,
2013-04-16 09:22:00,63.0,55.0,30.04,West,264,1.0,-999.0,76,-99.99,,,-99.99,,2013-04-16 13:22:00,
2013-04-16 09:32:00,61.0,55.0,30.03,West,263,0.0,-999.0,80,-99.99,,,-99.99,,2013-04-16 13:32:00,
2013-04-16 09:42:00,61.0,55.0,30.03,West,263,0.0,-999.0,80,-99.99,,,-99.99,,2013-04-16 13:42:00,
2013-04-16 09:52:00,62.0,56.0,30.04,West,263,0.0,-999.0,81,-99.99,,,-99.99,,2013-04-16 13:52:00,
2013-04-16 10:02:00,61.0,56.0,30.01,SE,128,0.0,-999.0,84,-99.99,,,-99.99,,2013-04-16 14:02:00,
2013-04-16 10:12:00,61.0,56.0,30.01,SE,128,0.0,-999.0,84,-99.99,,,-99.99,,2013-04-16 14:12:00,
2013-04-16 10:22:00,60.0,56.0,30.02,SE,133,0.0,-999.0,88,-99.99,,,-99.99,,2013-04-16 14:22:00,
2013-04-16 10:32:00,60.0,57.0,30.02,SSE,165,0.0,-999.0,89,-99.99,,,-99.99,,2013-04-16 14:32:00,
2013-04-16 10:42:00,60.0,57.0,30.02,SSE,165,0.0,-999.0,89,-99.99,,,-99.99,,2013-04-16 14:42:00,
2013-04-16 10:52:00,60.0,57.0,30.02,ESE,105,0.0,-999.0,90,-99.99,,,-99.99,,2013-04-16 14:52:00,
2013-04-16 11:02:00,60.0,57.0,30.03,SSW,198,0.0,-999.0,91,-99.99,,,-99.99,,2013-04-16 15:02:00,
2013-04-16 11:12:00,60.0,57.0,30.03,SSW,198,0.0,-999.0,91,-99.99,,,-99.99,,2013-04-16 15:12:00,
2013-04-16 11:22:00,61.0,58.0,30.03,South,187,0.0,-999.0,91,-99.99,,,-99.99,,2013-04-16 15:22:00,
2013-04-16 11:33:00,62.0,59.0,30.04,SSW,198,1.0,-999.0,90,-99.99,,,-99.99,,2013-04-16 15:33:00,
2013-04-16 11:43:00,62.0,59.0,30.04,SSW,198,1.0,-999.0,90,-99.99,,,-99.99,,2013-04-16 15:43:00,
2013-04-16 11:53:00,63.0,59.0,30.04,SW,224,1.0,-999.0,88,-99.99,,,-99.99,,2013-04-16 15:53:00,
2013-04-16 12:03:00,65.0,61.0,30.04,SSE,161,2.0,-999.0,86,-99.99,,,-99.99,,2013-04-16 16:03:00,
2013-04-16 12:13:00,65.0,61.0,30.04,SSE,161,2.0,-999.0,86,-99.99,,,-99.99,,2013-04-16 16:13:00,
2013-04-16 12:23:00,66.0,61.0,30.03,SW,226,2.0,-999.0,83,-99.99,,,-99.99,,2013-04-16 16:23:00,
2013-04-16 12:32:00,67.0,61.0,30.02,WSW,255,2.0,-999.0,82,-99.99,,,-99.99,,2013-04-16 16:32:00,
2013-04-16 12:42:00,67.0,61.0,30.02,WSW,255,2.0,-999.0,82,-99.99,,,-99.99,,2013-04-16 16:42:00,
2013-04-16 12:53:00,67.0,61.0,30.01,SW,231,2.0,-999.0,82,-99.99,,,-99.99,,2013-04-16 16:53:00,
2013-04-16 13:02:00,68.0,62.0,30.01,WSW,242,1.0,-999.0,81,-99.99,,,-99.99,,2013-04-16 17:02:00,
2013-04-16 13:12:00,68.0,62.0,30.01,WSW,242,1.0,-999.0,81,-99.99,,,-99.99,,2013-04-16 17:12:00,
2013-04-16 13:22:00,63.0,56.0,30.04,WNW,294,4.0,-999.0,77,-99.99,,,-99.99,,2013-04-16 17:22:00,
2013-04-16 13:32:00,57.0,53.0,30.06,NW,305,2.0,-999.0,86,-99.99,,,-99.99,,2013-04-16 17:32:00,
2013-04-16 13:43:00,57.0,53.0,30.06,NW,305,2.0,-999.0,86,-99.99,,,-99.99,,2013-04-16 17:43:00,
2013-04-16 13:53:00,54.0,51.0,30.07,West,281,2.0,-999.0,88,-99.99,,,-99.99,,2013-04-16 17:53:00,
2013-04-16 14:02:00,54.0,51.0,30.06,WNW,285,0.0,-999.0,91,-99.99,,,-99.99,,2013-04-16 18:02:00,
2013-04-16 14:12:00,55.0,52.0,30.06,WNW,295,1.0,-999.0,91,-99.99,,,-99.99,,2013-04-16 18:12:00,
2013-04-16 14:22:00,55.0,52.0,30.06,WNW,295,1.0,-999.0,91,-99.99,,,-99.99,,2013-04-16 18:22:00,
2013-04-16 14:32:00,55.0,52.0,30.08,WNW,294,1.0,-999.0,90,-99.99,,,-99.99,,2013-04-16 18:32:00,
2013-04-16 14:42:00,55.0,52.0,30.08,WNW,294,1.0,-999.0,90,-99.99,,,-99.99,,2013-04-16 18:42:00,
2013-04-16 14:52:00,55.0,52.0,30.08,WNW,298,1.0,-999.0,90,-99.99,,,-99.99,,2013-04-16 18:52:00,
2013-04-16 15:02:00,54.0,51.0,30.08,NW,311,1.0,-999.0,90,-99.99,,,-99.99,,2013-04-16 19:02:00,
2013-04-16 15:12:00,54.0,51.0,30.08,NW,311,1.0,-999.0,90,-99.99,,,-99.99,,2013-04-16 19:12:00,
2013-04-16 15:22:00,53.0,50.0,30.09,WNW,300,1.0,-999.0,89,-99.99,,,-99.99,,2013-04-16 19:22:00,
2013-04-16 15:32:00,53.0,50.0,30.09,NW,306,1.0,-999.0,90,-99.99,,,-99.99,,2013-04-16 19:32:00,
2013-04-16 15:42:00,53.0,50.0,30.09,NW,306,1.0,-999.0,90,-99.99,,,-99.99,,2013-04-16 19:42:00,
2013-04-16 15:52:00,53.0,50.0,30.09,WNW,293,1.0,-999.0,90,-99.99,,,-99.99,,2013-04-16 19:52:00,
2013-04-16 16:02:00,53.0,50.0,30.10,West,280,0.0,-999.0,88,-99.99,,,-99.99,,2013-04-16 20:02:00,
2013-04-16 16:12:00,53.0,50.0,30.10,West,280,0.0,-999.0,88,-99.99,,,-99.99,,2013-04-16 20:12:00,
2013-04-16 16:22:00,52.0,49.0,30.10,NW,304,1.0,-999.0,89,-99.99,,,-99.99,,2013-04-16 20:22:00,
2013-04-16 16:32:00,52.0,49.0,30.11,WNW,292,0.0,-999.0,90,-99.99,,,-99.99,,2013-04-16 20:32:00,
2013-04-16 16:42:00,52.0,49.0,30.11,WNW,292,0.0,-999.0,90,-99.99,,,-99.99,,2013-04-16 20:42:00,
2013-04-16 16:52:00,52.0,49.0,30.12,WNW,287,0.0,-999.0,90,-99.99,,,-99.99,,2013-04-16 20:52:00,
2013-04-16 17:02:00,51.0,48.0,30.14,West,271,2.0,-999.0,90,-99.99,,,-99.99,,2013-04-16 21:02:00,
2013-04-16 17:12:00,51.0,48.0,30.14,West,271,2.0,-999.0,90,-99.99,,,-99.99,,2013-04-16 21:12:00,
2013-04-16 17:22:00,51.0,48.0,30.14,WNW,300,1.0,-999.0,91,-99.99,,,-99.99,,2013-04-16 21:22:00,
2013-04-16 17:32:00,51.0,48.0,30.14,WNW,303,0.0,-999.0,91,-99.99,,,-99.99,,2013-04-16 21:32:00,
2013-04-16 17:43:00,51.0,48.0,30.14,WNW,303,0.0,-999.0,91,-99.99,,,-99.99,,2013-04-16 21:43:00,
2013-04-16 17:53:00,51.0,48.0,30.14,WNW,303,0.0,-999.0,91,-99.99,,,-99.99,,2013-04-16 21:53:00,
2013-04-16 18:03:00,51.0,49.0,30.15,WNW,303,0.0,-999.0,92,-99.99,,,-99.99,,2013-04-16 22:03:00,
2013-04-16 18:13:00,51.0,49.0,30.15,WNW,303,0.0,-999.0,92,-99.99,,,-99.99,,2013-04-16 22:13:00,
2013-04-16 18:22:00,51.0,49.0,30.14,WNW,289,0.0,-999.0,92,-99.99,,,-99.99,,2013-04-16 22:22:00,
2013-04-16 18:33:00,51.0,49.0,30.14,WNW,290,0.0,-999.0,92,-99.99,,,-99.99,,2013-04-16 22:33:00,
2013-04-16 18:43:00,51.0,49.0,30.14,WNW,290,0.0,-999.0,92,-99.99,,,-99.99,,2013-04-16 22:43:00,
2013-04-16 18:52:00,52.0,50.0,30.14,WNW,290,0.0,-999.0,92,-99.99,,,-99.99,,2013-04-16 22:52:00,
2013-04-16 19:02:00,52.0,50.0,30.14,WNW,290,0.0,-999.0,92,-99.99,,,-99.99,,2013-04-16 23:02:00,
2013-04-16 19:12:00,52.0,50.0,30.14,WNW,290,0.0,-999.0,92,-99.99,,,-99.99,,2013-04-16 23:12:00,
2013-04-16 19:22:00,52.0,49.0,30.14,WNW,290,0.0,-999.0,91,-99.99,,,-99.99,,2013-04-16 23:22:00,
2013-04-16 19:32:00,52.0,49.0,30.14,WNW,290,0.0,-999.0,91,-99.99,,,-99.99,,2013-04-16 23:32:00,
2013-04-16 19:43:00,52.0,49.0,30.14,WNW,290,0.0,-999.0,91,-99.99,,,-99.99,,2013-04-16 23:43:00,
2013-04-16 19:52:00,52.0,49.0,30.14,WNW,290,0.0,-999.0,91,-99.99,,,-99.99,,2013-04-16 23:52:00,
2013-04-16 20:02:00,52.0,49.0,30.14,WNW,290,0.0,-999.0,91,-99.99,,,-99.99,,2013-04-17 00:02:00,
2013-04-16 20:12:00,52.0,49.0,30.14,WNW,290,0.0,-999.0,91,-99.99,,,-99.99,,2013-04-17 00:12:00,
2013-04-16 20:22:00,52.0,50.0,30.15,WNW,290,0.0,-999.0,92,-99.99,,,-99.99,,2013-04-17 00:22:00,
2013-04-16 20:32:00,52.0,50.0,30.17,WNW,290,0.0,-999.0,92,-99.99,,,-99.99,,2013-04-17 00:32:00,
2013-04-16 20:42:00,52.0,50.0,30.17,WNW,290,0.0,-999.0,92,-99.99,,,-99.99,,2013-04-17 00:42:00,
2013-04-16 20:52:00,52.0,50.0,30.17,WNW,290,0.0,-999.0,92,-99.99,,,-99.99,,2013-04-17 00:52:00,
2013-04-16 21:02:00,52.0,50.0,30.16,WNW,290,0.0,-999.0,92,-99.99,,,-99.99,,2013-04-17 01:02:00,
2013-04-16 21:12:00,52.0,50.0,30.16,WNW,290,0.0,-999.0,92,-99.99,,,-99.99,,2013-04-17 01:12:00,
2013-04-16 21:22:00,52.0,50.0,30.17,WNW,290,0.0,-999.0,93,-99.99,,,-99.99,,2013-04-17 01:22:00,
2013-04-16 21:32:00,52.0,50.0,30.18,WNW,290,0.0,-999.0,93,-99.99,,,-99.99,,2013-04-17 01:32:00,
2013-04-16 21:42:00,52.0,50.0,30.18,WNW,290,0.0,-999.0,93,-99.99,,,-99.99,,2013-04-17 01:42:00,
2013-04-16 21:52:00,53.0,51.0,30.18,WNW,290,0.0,-999.0,93,-99.99,,,-99.99,,2013-04-17 01:52:00,
2013-04-16 22:02:00,52.0,50.0,30.18,WNW,290,0.0,-999.0,93,-99.99,,,-99.99,,2013-04-17 02:02:00,
2013-04-16 22:12:00,52.0,50.0,30.18,WNW,290,0.0,-999.0,93,-99.99,,,-99.99,,2013-04-17 02:12:00,
2013-04-16 22:22:00,52.0,50.0,30.16,WNW,290,0.0,-999.0,93,-99.99,,,-99.99,,2013-04-17 02:22:00,
2013-04-16 22:32:00,52.0,50.0,30.17,WNW,290,0.0,-999.0,93,-99.99,,,-99.99,,2013-04-17 02:32:00,
2013-04-16 22:42:00,52.0,50.0,30.17,WNW,290,0.0,-999.0,93,-99.99,,,-99.99,,2013-04-17 02:42:00,
2013-04-16 22:52:00,52.0,50.0,30.18,WNW,290,0.0,-999.0,93,-99.99,,,-99.99,,2013-04-17 02:52:00,
2013-04-16 23:02:00,51.0,49.0,30.18,WNW,290,0.0,-999.0,93,-99.99,,,-99.99,,2013-04-17 03:02:00,
2013-04-16 23:12:00,51.0,49.0,30.18,WNW,290,0.0,-999.0,93,-99.99,,,-99.99,,2013-04-17 03:12:00,
2013-04-16 23:22:00,51.0,49.0,30.16,WNW,288,0.0,-999.0,93,-99.99,,,-99.99,,2013-04-17 03:22:00,
2013-04-16 23:33:00,51.0,49.0,30.17,WNW,288,0.0,-999.0,93,-99.99,,,-99.99,,2013-04-17 03:33:00,
2013-04-16 23:42:00,51.0,49.0,30.17,WNW,288,0.0,-999.0,93,-99.99,,,-99.99,,2013-04-17 03:42:00,
2013-04-16 23:53:00,50.0,48.0,30.19,WNW,287,0.0,-999.0,94,-99.99,,,-99.99,,2013-04-17 03:53:00,